Regional Weather Roundup
Issued by NWS Little Rock, AR

Home | Current Version | Previous Version | Graphics & Text | Print | Product List | Glossary On
Versions: 1 2 3 4 5 6 7 8 9 10 11 12 13 14 15 16 17 18 19 20 21 22 23 24 25 26 27 28 29 30 31 32 33 34 35 36 37 38 39 40 41 42 43 44 45 46 47 48 49 50
405
ASUS44 KLZK 301105
RWRLZK

WEATHER ROUNDUP FOR ARKANSAS
NATIONAL WEATHER SERVICE LITTLE ROCK AR
600 AM CDT SAT APR 30 2016

NOTE: "FAIR" INDICATES FEW OR NO CLOUDS BELOW 12,000 FEET WITH NO
SIGNIFICANT WEATHER AND/OR OBSTRUCTIONS TO VISIBILITY.

ARZ001-003-010-029-301200-
NORTHWEST ARKANSAS

CITY           SKY/WX    TMP DP  RH WIND       PRES   REMARKS
FAYETTEVILLE   CLOUDY    62  61  96 S12       29.69S
FORT SMITH     CLOUDY    65  61  87 CALM      29.69R
HARRISON       CLOUDY    62  61  96 SE10      29.68S
BENTONVILLE    CLOUDY    61  57  88 SW6       29.69R
ROGERS         CLOUDY    61  59  93 S6        29.70R
SILOAM SPGS    CLOUDY    61  54  77 S6        29.70R
HIGHFILL       CLOUDY    62  61  96 S10       29.68S
SPRINGDALE     PTCLDY    63  61  94 S7        29.70
$$

ARZ004-005-016-301200-
NORTH CENTRAL ARKANSAS

CITY           SKY/WX    TMP DP  RH WIND       PRES   REMARKS
BATESVILLE     CLOUDY    64  61  88 S13G28    29.76R
FLIPPIN        CLOUDY   N/A N/A N/A S3        29.67S
MTN HOME       CLOUDY    62  61  96 SE6       29.69F
$$

ARZ040-041-301200-
WEST CENTRAL ARKANSAS

CITY           SKY/WX    TMP DP  RH WIND       PRES   REMARKS
MENA           CLOUDY    66  64  94 CALM      29.72R
MOUNT IDA      CLOUDY    64  60  87 VRB6      29.71R
$$

ARZ009-017-025-026-028-301200-
NORTHEAST ARKANSAS

CITY           SKY/WX    TMP DP  RH WIND       PRES   REMARKS
CORNING        HVY RAIN  63  63 100 E17       29.78F
JONESBORO      LGT RAIN  64  64 100 SE16G28   29.82R
NEWPORT        LGT RAIN  65  65 100 S20       29.78F
WALNUT RIDGE   CLOUDY    63  59  88 SE20      29.77F
BLYTHEVILLE    TSTM      63  32  31 N6        29.84R
$$

ARZ022-023-033-042-044-301200-
CENTRAL ARKANSAS

CITY           SKY/WX    TMP DP  RH WIND       PRES   REMARKS
LITTLE ROCK    LGT RAIN  65  61  87 S21G26    29.80F FOG
N LITTLE ROCK    N/A     63  61  93 SW9G22    29.76F
JACKSONVILLE   LGT RAIN  63  63  99 S21G31    29.74F
SEARCY         CLOUDY    64  63  94 S17       29.75F
HOT SPRINGS    CLOUDY    65  61  87 VRB6      29.75F
RUSSELLVILLE   CLOUDY    63  62  97 CALM      29.68F
$$

ARZ036-301200-
EAST ARKANSAS

CITY           SKY/WX    TMP DP  RH WIND       PRES   REMARKS
WEST MEMPHIS   TSTM      64  64 100 W9        29.85R VSB 1
$$

ARZ050-053-066-070-073-301200-
SOUTHWEST ARKANSAS

CITY           SKY/WX    TMP DP  RH WIND       PRES   REMARKS
ARKADELPHIA    FAIR      66  66 100 SE16      29.67F
CAMDEN         HVY RAIN  64  63  94 S3        29.81S
TEXARKANA      CLOUDY    65  62  90 SE13G22   29.68S
EL DORADO      HVY RAIN  65  65 100 S6        29.82R FOG
DE QUEEN       CLOUDY    66  65  96 CALM      29.69R
$$

ARZ056-057-069-301200-
SOUTHEAST ARKANSAS

CITY           SKY/WX    TMP DP  RH WIND       PRES   REMARKS
PINE BLUFF     LGT RAIN  67  61  81 SW15G25   29.80F
STUTTGART      CLOUDY    66  61  82 SW18G25   29.84R
MONTICELLO     LGT RAIN  68  65  90 W6        29.79S

$$






USA.gov is the U.S. government's official web portal to all federal, state and local government web resources and services.